Location: Beneden-Haastrecht
(52.0012°N, 4.7557°E)
Time: 11:04:05
(UTC+00:00)

Cosmos 1825 Rocket - Pass Details

Date: 24 October 2020
Orbit: 603 x 631 km, 82.5° (Epoch: 24 November)

Event Time Altitude Azimuth Distance (km) Brightness Sun altitude
Rises 17:20:01 0° 350° (N) 2,937 7.1 -8.7°
Reaches altitude 10° 17:22:16 10° 352° (N) 2,022 6.2 -9.1°
Maximum altitude 17:26:45 75° 78° (ENE) 654 3.5 -9.8°
Drops below altitude 10° 17:31:11 10° 165° (SSE) 1,992 6.1 -10.4°
Sets 17:33:24 0° 167° (SSE) 2,890 6.9 -10.8°
